Regional Weather Roundup
Issued by NWS

Home | Current Version | Previous Version | Text Only | Print | Product List | Glossary On
Versions: 1 2 3 4 5 6 7 8 9 10 11 12 13 14 15 16 17 18 19 20 21 22 23 24 25 26 27 28 29 30 31 32 33 34 35 36 37 38 39 40 41 42 43 44 45 46 47 48 49 50
000
ASUS43 KDTX 280110
RWRMI
MICHIGAN HOURLY REGIONAL WEATHER ROUNDUP
NATIONAL WEATHER SERVICE DETROIT/PONTIAC MI
800 PM EST TUE JAN 27 2015

NOTE: "FAIR" INDICATES FEW OR NO CLOUDS BELOW 12,000 FEET WITH NO
SIGNIFICANT WEATHER AND/OR OBSTRUCTION TO VISIBILITY.

MIZ047>049-052>055-059>063-066>070-074>076-081>083-280200-
SOUTHEAST LOWER MICHIGAN

CITY           SKY/WX    TMP DP  RH WIND       PRES   REMARKS
ADRIAN         CLEAR     19  10  68 N7        30.22R
ALMA           CLEAR     12   5  72 CALM      30.23R
ANN ARBOR      CLEAR     20  11  68 N9        30.21R
BAD AXE        CLEAR     14  10  83 N5        30.22S
DETROIT CITY   CLEAR     22  10  60 N9        30.22R
DETROIT        CLEAR     22  11  62 NW10      30.22R
FLINT          CLEAR     19  10  68 N5        30.22R
GROSSE ILE     CLEAR     21   9  58 NE5       30.20R
HILLSDALE      CLEAR     18  10  69 CALM      30.19R
HOWELL         CLEAR     17  10  74 CALM      30.20S

CITY           SKY/WX    TMP DP  RH WIND       PRES   REMARKS
JACKSON        CLEAR     18  10  71 N3        30.20R
LAMBERTVILLE   CLEAR     23  12  63 N6        30.22R
LANSING        CLEAR     18  10  71 CALM      30.23R
LAPEER         NOT AVBL
MASON          CLEAR     18  10  71 CALM      30.21S
MONROE           N/A     21  12  68 N8        30.20R
MT. CLEMENS    CLEAR     19  11  72 NW8       30.19R
PONTIAC        CLEAR     18  10  71 N6        30.19R
PORT HOPE        N/A     22  11  62 N8G17     30.22R
PORT HURON     PTCLDY    18  12  79 NW7       30.20R
TRI CITIES     CLEAR     18  11  74 E3        30.24S
YPSILANTI      CLEAR     23  12  62 N10       30.22R
$$
MIZ043>046-050>051-056>058-064>065-071>073-077>080-280200-
SOUTHWEST LOWER MICHIGAN

CITY           SKY/WX    TMP DP  RH WIND       PRES   REMARKS
BATTLE CREEK     N/A     23   9  55 NE5       30.22R
BENTON HARBOR  CLEAR     21  13  71 CALM      30.24R
BIG RAPIDS     CLEAR     19   6  57 NW3       30.21R
COLDWATER      CLEAR     20  10  65 CALM      30.21R
HOLLAND        CLEAR     22  12  65 CALM      30.24S
GRAND RAPIDS   CLEAR     23   5  46 CALM      30.23R
KALAMAZOO      CLEAR     21  10  62 CALM      30.23R
MARSHALL       CLEAR     20   9  62 CALM      30.21R
MUSKEGON       CLEAR     22  12  65 N5        30.25R
$$
MIZ016>042-280200-
NORTHERN LOWER MICHIGAN

CITY           SKY/WX    TMP DP  RH WIND       PRES   REMARKS
ALPENA         CLEAR      6   0  76 CALM      30.25S
BEAVER ISLAND  CLEAR      7   1  76 CALM      30.25S
BELLAIRE       CLEAR     13   9  81 CALM      30.26R
CADILLAC       CLEAR     18   5  57 CALM      30.19R
CHARLEVOIX     CLEAR     11   5  79 CALM      30.27S
FRANKFORT      CLEAR     17  11  77 CALM      30.25S
GAYLORD        CLEAR     12   2  64 CALM      30.19R
GRAYLING       CLEAR      6  -1  73 CALM      30.21R
HARBOR SPRINGS CLEAR     12   5  73 CALM      30.25R
HOUGHTON LAKE  CLEAR     11   1  64 NW3       30.20R
MANISTEE       CLEAR     21   9  58 CALM      30.25S
OSCODA         CLEAR     13   5  70 N5        30.24R
PELLSTON       CLEAR      7   2  80 CALM      30.25S
TRAVERSE CITY  CLEAR     16   6  65 CALM      30.24S
$$
MIZ007>008-015-280200-
EASTERN UPPER MICHIGAN

CITY           SKY/WX    TMP DP  RH WIND       PRES   REMARKS
KINROSS        CLEAR      9  -2  61 CALM      30.24R
MACKINAC ISLAN CLEAR      9   1  70 W3        30.25R
NEWBERRY       CLEAR     10  -2  59 CALM      30.22F
S. S. MARIE    CLEAR     10  -5  50 CALM      30.23S
$$
MIZ004>006-011>014-085-280200-
CENTRAL UPPER MICHIGAN

CITY           SKY/WX    TMP DP  RH WIND       PRES   REMARKS
MANISTIQUE     PTCLDY     9   7  93 CALM      30.24S
ESCANABA       CLOUDY    21  16  79 CALM      30.25S
MENOMINEE      CLOUDY    21  16  79 CALM      30.24S
SAWYER-GWINN   CLOUDY    21  16  79 SW3       30.18F
$$
MIZ001>003-009>011-084-280200-
WESTERN UPPER MICHIGAN

CITY           SKY/WX    TMP DP  RH WIND       PRES   REMARKS
IRON MOUNTAIN  CLOUDY    22  17  81 SE5       30.18F
HOUGHTON       CLOUDY    24  18  77 S6        30.16S
COPPER HARBOR    N/A     24  19  81 CALM      30.19F
IRONWOOD       CLOUDY    25  21  86 S5        30.13F
$$

ABBREVIATIONS USED IN REMARKS
   TC - TEMPERATURE IN CELSIUS
  WCI - WIND CHILL INDEX
   HX - HEAT INDEX
  VSB - VISIBILITY



USA.gov is the U.S. government's official web portal to all federal, state and local government web resources and services.